Dewpoint
60 54 47 40 49 45 33 33 14 21 22 18 22 15 8 20 25 13 11 10 24 29 51 57 58 55 48 46 49 60 63 54 55 43 44 57 68 70 71 72 73 73 73 73 74 74 74 74 74 73 73 73 73 73 72 71 71 71 71 71 71 71 71 71 71 71 72 72 73 73 73 73 72 72 72 72 72 72 72 72 71 71 71 71 70 70 70 70 70 70 70 70 70 71 71 71 71
55 52 41 46 46 32 28 35 28 28 24 21 17 19 14 18 16 13 10 11 23 40 57 58 59 59 59 59 59 57 61 64 64 64 67 69 70 70 71 72 72 72 73 73 73 73 73 73 73 73 73 73 72 72 72 71 71 71 71 71 71 71 71 71 71 71 71 72 72 72 72 72 72 72 72 72 72 72 72 72 71 70 70 70 70 69 69 69 69 70 70 70 70 71 71 71 70
53 41 33 38 34 34 33 24 14 26 16 16 16 19 19 15 12 11 11 12 48 53 55 57 56 54 55 58 56 53 55 65 66 67 67 69 68 70 71 72 72 73 73 73 73 73 73 73 73 73 73 73 72 73 72 71 71 71 71 71 71 71 71 71 71 71 71 71 72 72 73 72 72 72 72 72 72 72 72 72 71 71 71 69 68 68 69 68 68 68 69 69 70 70 70 70 70
47 48 36 33 31 31 29 25 20 22 17 13 14 14 17 13 12 13 13 11 50 53 52 51 53 55 56 57 58 60 60 63 66 66 66 67 68 71 72 72 73 73 73 72 73 73 72 73 73 73 73 73 73 73 72 71 71 71 71 71 70 71 71 71 71 71 71 72 72 72 72 72 72 72 72 72 72 72 72 71 71 71 70 70 70 70 69 68 67 67 67 68 68 69 69 70 69
45 46 44 32 25 31 28 26 22 19 10 16 9 10 19 15 14 13 11 15 42 46 43 53 54 55 58 56 57 57 60 65 65 66 67 69 71 72 72 72 72 72 72 72 73 72 72 73 73 73 73 73 73 72 71 71 71 71 71 70 70 70 70 70 70 71 72 72 72 72 72 72 72 72 73 72 72 71 72 72 71 71 70 70 70 70 70 69 69 67 66 67 68 69 69 69 69
36 31 35 31 29 28 20 22 23 17 11 15 11 8 8 11 13 11 10 12 11 31 42 53 53 54 58 60 60 61 64 61 65 66 68 69 71 72 72 72 72 72 72 73 73 72 73 73 73 73 73 73 72 72 71 71 71 71 71 71 70 70 71 70 70 71 72 72 72 72 72 72 72 72 72 72 71 71 71 71 71 70 70 69 69 69 69 70 68 68 67 68 68 68 69 68 68
31 27 28 26 27 26 19 19 15 19 19 14 12 10 9 12 10 14 15 12 22 49 56 54 57 57 57 58 64 64 65 65 66 66 68 70 71 71 72 72 71 72 72 72 73 72 72 73 73 73 73 73 72 71 71 71 71 71 71 71 71 71 70 70 71 71 72 72 72 72 72 72 72 72 72 72 71 71 71 71 71 70 70 70 70 70 70 70 70 70 69 69 68 68 68 68 67
45 25 27 24 23 22 21 19 17 18 17 18 19 18 18 20 20 14 13 12 10 50 55 56 58 61 60 64 60 64 66 66 67 69 70 70 70 71 71 71 71 72 72 72 72 72 73 73 73 73 73 72 72 72 71 71 71 70 70 70 70 70 70 71 71 72 72 72 72 72 73 72 72 72 72 72 72 72 72 71 71 70 70 69 69 69 69 68 68 68 68 68 68 68 68 68 67
33 30 33 19 22 22 19 16 14 16 15 14 13 20 38 26 24 20 17 17 14 44 55 54 57 57 61 62 62 64 66 67 68 69 69 69 70 71 71 70 71 71 71 72 72 72 72 73 73 73 72 72 72 72 71 71 70 70 70 70 70 70 71 71 71 72 72 72 72 73 73 73 72 72 72 72 72 72 71 71 70 70 70 69 68 68 67 67 68 68 68 68 69 68 68 67 67
30 27 23 21 18 18 16 16 19 17 15 15 14 14 14 15 14 12 11 10 7 54 54 60 60 60 62 61 63 64 65 67 67 67 68 69 70 70 70 70 70 70 71 71 72 72 72 73 72 72 72 72 72 72 71 71 70 70 69 70 70 70 70 71 71 72 72 72 73 72 72 72 72 72 72 71 71 71 71 70 70 70 70 70 70 69 69 68 67 67 68 69 69 69 68 68 67
28 22 26 19 20 14 14 14 14 14 14 14 12 15 15 15 14 14 11 9 17 50 54 62 62 62 63 63 63 66 66 66 66 66 67 69 70 70 70 71 71 71 71 71 71 71 71 72 73 72 72 72 72 72 71 71 70 70 70 70 70 70 70 71 71 72 72 72 72 72 72 72 72 72 71 71 71 71 71 70 70 70 70 69 70 70 69 69 69 68 68 68 68 68 68 68 68
26 23 20 17 15 13 12 12 13 13 12 12 11 12 14 15 15 12 11 10 26 51 54 60 61 63 61 62 63 65 66 65 65 66 68 69 69 70 70 71 71 71 71 71 71 71 71 71 71 72 72 72 72 71 71 70 71 70 70 70 70 70 71 71 71 72 72 71 71 72 72 72 72 72 71 71 71 71 71 71 70 70 70 70 70 70 70 69 68 69 69 68 68 68 68 68 68
29 18 15 14 14 12 18 11 10 22 18 12 12 12 10 11 11 11 11 10 18 50 53 57 63 62 60 61 64 65 65 66 66 68 69 69 69 70 70 70 71 71 71 71 71 71 71 71 71 71 71 72 71 71 71 70 70 70 70 70 70 70 71 71 71 71 71 71 71 71 71 71 71 71 71 71 71 71 71 71 70 70 70 70 70 70 70 69 69 69 69 68 68 68 68 68 68
32 22 15 13 14 10 9 11 10 9 7 8 9 10 10 8 6 8 9 8 26 42 49 61 62 63 63 63 64 64 65 66 67 68 68 69 70 70 70 70 70 70 71 71 70 70 70 70 71 71 71 70 70 71 71 70 70 70 70 70 70 71 71 71 71 71 71 71 71 71 71 71 71 71 71 71 71 70 70 70 70 70 70 70 70 70 69 69 69 69 69 69 68 68 68 68 68
30 21 20 17 11 10 8 9 9 8 8 10 12 10 9 16 13 7 6 52 57 52 61 63 64 61 60 61 62 64 66 66 67 68 69 69 69 70 70 70 70 70 70 70 70 70 70 70 70 70 70 70 70 69 70 70 70 70 70 70 70 70 70 71 71 71 71 71 71 70 70 71 71 71 71 71 71 70 70 70 70 70 70 69 70 69 70 70 69 69 69 69 69 69 69 69 69
31 14 15 18 10 9 9 10 11 9 8 9 9 14 12 10 56 35 38 55 58 62 59 58 61 57 62 62 63 66 66 67 68 68 68 68 68 69 69 69 69 70 70 70 69 69 69 69 69 69 69 69 69 69 69 69 69 70 70 70 70 70 70 70 71 71 71 71 71 70 70 70 70 70 71 70 71 71 70 70 70 70 70 70 69 69 69 70 70 69 69 68 69 69 69 69 69
20 16 14 13 9 8 7 7 7 5 6 7 9 11 10 10 21 61 62 60 59 62 64 64 62 63 63 65 66 67 67 68 68 67 67 67 67 67 68 68 69 69 69 69 69 69 69 69 69 69 69 69 68 69 69 69 69 70 70 70 70 70 70 70 70 70 70 70 70 70 70 68 68 68 68 68 70 69 70 70 69 69 69 70 69 68 69 69 70 70 69 69 69 69 69 68 68
28 21 15 15 9 7 11 6 6 7 8 7 9 10 10 10 14 59 61 62 63 64 64 65 65 65 67 67 67 67 67 67 67 66 66 66 66 66 66 67 67 67 68 68 69 69 69 69 69 69 69 69 69 69 69 69 69 70 69 69 69 69 69 69 69 69 70 68 70 69 68 69 67 66 67 70 68 68 68 70 69 69 69 69 69 69 69 69 70 70 70 69 69 69 69 64 64
27 24 17 17 11 8 8 8 9 8 6 8 9 10 14 12 14 26 58 59 62 63 64 65 65 66 67 67 67 66 66 66 66 65 65 65 65 64 65 65 66 67 67 68 68 69 69 69 68 68 69 69 69 69 69 69 68 68 68 69 69 70 70 70 68 69 67 67 68 68 68 67 66 66 67 69 69 70 69 69 69 69 69 69 69 69 69 69 69 70 70 69 69 69 65 63 61
27 24 17 17 14 10 11 11 9 9 9 9 10 10 13 12 14 25 57 58 62 62 62 64 64 64 66 66 66 66 66 65 65 65 64 64 64 64 64 64 65 66 66 67 67 68 68 68 68 68 69 69 69 69 69 69 69 69 69 69 69 69 69 69 68 68 67 67 67 67 66 67 66 65 70 69 70 67 67 70 70 69 69 69 69 70 70 70 69 70 70 70 69 67 65 63 62
21 26 24 19 14 14 13 10 9 10 11 11 10 15 11 12 14 41 58 57 58 62 64 64 64 65 65 66 66 66 66 65 65 64 64 64 64 64 64 64 65 66 66 67 67 68 68 68 68 67 68 69 69 69 69 69 69 69 69 69 68 68 68 68 68 67 66 66 66 66 66 67 66 65 66 65 65 64 64 64 64 65 64 64 69 64 64 65 65 64 64 67 67 67 65 63 63
18 23 24 19 16 12 12 12 12 12 13 12 12 11 10 13 38 57 56 52 55 61 64 65 65 65 65 66 66 66 65 64 64 64 64 63 63 63 64 65 66 66 67 66 67 67 67 67 67 66 67 68 68 68 68 69 69 69 69 69 68 68 68 69 68 66 65 64 65 66 66 66 66 66 65 65 65 64 64 63 63 63 63 64 67 65 65 65 65 65 65 66 67 67 66 65 63
21 21 18 18 19 19 17 14 14 13 12 12 11 12 15 15 30 44 57 57 60 63 65 66 66 66 66 66 65 65 64 64 63 63 63 62 62 62 63 64 65 65 66 66 67 66 67 67 66 66 66 67 67 68 68 68 68 69 69 69 68 68 68 68 67 65 64 64 64 66 67 65 65 66 66 64 64 64 64 64 63 63 62 62 64 64 64 64 64 64 65 65 65 66 66 65 64
22 20 19 18 16 15 16 15 14 12 13 11 11 14 12 14 32 49 61 62 64 65 66 66 67 67 65 65 65 64 64 63 63 63 63 62 62 63 63 63 65 65 66 66 66 66 67 66 66 66 66 67 66 66 66 66 67 68 69 69 68 70 68 67 65 64 64 65 66 67 68 66 65 65 65 64 64 64 64 64 64 63 63 63 63 63 63 63 62 63 64 64 65 65 66 66 64
18 19 20 19 18 15 14 14 13 13 12 12 12 11 12 13 15 55 61 64 65 66 66 67 67 65 65 64 64 64 63 63 63 62 62 62 62 63 63 63 64 65 65 66 66 66 66 66 66 66 66 66 66 66 66 66 67 68 68 67 67 69 66 66 65 66 65 65 67 68 67 65 64 64 64 64 64 64 64 64 64 64 63 63 63 63 63 62 62 62 64 64 65 65 65 65 65
19 17 18 16 16 15 14 13 13 13 12 12 12 12 15 54 58 59 62 64 65 66 66 66 66 64 64 64 64 64 63 63 62 62 62 62 63 63 63 63 64 64 65 65 65 65 66 66 66 66 66 66 66 66 65 66 66 66 66 67 68 68 66 66 66 66 65 65 66 68 67 65 64 64 64 63 64 64 63 63 64 63 63 63 63 62 63 63 63 61 62 63 65 65 66 65 65
18 18 18 17 17 15 15 13 12 13 12 14 12 11 15 29 52 54 63 65 65 66 65 66 65 64 64 63 64 63 63 63 62 62 61 61 62 63 63 63 63 64 64 64 65 66 66 65 65 66 66 67 66 65 65 65 66 66 66 67 67 66 66 66 66 65 65 66 66 66 66 66 64 64 64 63 63 63 63 63 63 63 63 63 63 63 62 62 62 62 62 62 64 65 66 66 65
17 13 13 11 11 11 13 14 13 19 10 12 12 11 12 14 55 57 63 64 65 65 65 65 65 64 63 63 63 63 63 63 63 62 61 61 62 63 64 64 64 64 64 64 64 66 66 65 65 66 66 66 66 65 66 65 65 66 66 66 67 66 66 65 65 65 66 65 66 66 66 65 65 64 64 64 63 63 63 63 63 63 64 64 64 64 64 63 62 62 62 62 62 63 64 64 65
11 13 10 10 10 8 10 10 11 10 9 12 13 12 10 11 53 60 63 64 64 64 64 64 64 64 63 63 63 63 63 63 62 62 62 62 62 63 64 64 64 65 65 64 66 66 66 65 65 65 66 66 65 65 65 65 65 66 66 66 66 66 66 66 65 65 65 65 65 66 66 66 66 65 64 64 66 64 63 63 64 64 64 64 64 64 64 64 63 62 62 63 62 63 64 64 65
8 10 10 7 6 5 5 11 12 9 9 12 11 10 11 11 54 61 63 63 63 64 64 64 64 63 63 63 63 63 62 62 62 62 62 62 61 62 64 65 65 65 65 66 66 66 66 65 66 65 65 65 65 65 65 65 65 65 65 65 67 66 65 65 66 65 65 65 66 66 66 66 66 65 65 64 64 64 63 64 64 64 64 64 64 64 64 64 64 63 62 61 64 63 63 63 64
6 6 8 8 6 6 7 11 10 8 11 12 11 11 11 11 46 61 62 62 63 63 63 64 63 63 63 62 62 62 62 62 62 62 62 62 62 62 64 65 65 66 66 66 66 66 66 66 66 65 65 65 66 65 65 65 64 66 65 65 65 65 65 65 65 65 65 65 66 65 66 66 66 66 65 65 65 64 64 64 64 64 64 64 64 64 64 64 64 63 63 62 61 61 62 63 64
8 6 6 12 6 6 10 15 8 6 11 12 9 15 10 9 41 59 60 62 62 62 62 63 63 62 62 62 62 62 61 61 61 62 62 63 63 63 65 65 66 66 66 66 66 66 66 66 65 64 64 64 64 64 64 64 65 65 65 67 64 65 65 65 65 65 65 65 66 65 65 66 66 65 65 64 64 65 66 65 65 64 65 65 65 64 64 64 63 63 63 62 61 60 62 62 63
14 7 14 13 7 5 5 7 12 9 9 9 8 7 10 7 21 57 59 61 61 61 62 62 62 61 61 61 61 61 62 62 63 63 64 64 64 64 64 65 65 66 66 66 66 66 66 66 66 64 64 64 64 64 63 63 65 65 65 67 66 65 65 65 65 66 66 66 65 65 65 66 66 65 65 65 65 65 66 66 65 64 65 65 65 64 64 64 63 63 63 63 63 62 62 62 62
10 14 10 11 6 8 5 7 8 13 8 7 8 8 12 13 20 52 58 60 60 61 61 61 61 61 61 61 61 62 62 62 62 63 63 64 64 64 65 65 65 66 66 66 66 66 66 66 66 65 64 63 63 63 63 64 65 65 65 66 67 65 65 65 66 66 67 66 66 66 65 66 66 65 65 65 65 66 66 66 66 65 65 65 64 63 63 63 62 62 62 63 63 63 61 61 61
11 9 9 9 8 12 5 4 4 9 10 8 9 10 8 11 23 52 57 59 60 60 61 61 61 61 61 61 61 62 62 62 62 63 63 64 64 64 65 65 66 66 66 65 65 66 66 66 66 66 64 63 63 63 64 65 65 64 63 64 64 64 64 65 65 65 66 66 66 66 66 66 66 65 65 65 65 66 67 67 66 66 65 64 64 63 62 62 63 63 62 62 62 62 62 62 61
8 11 13 14 8 5 5 7 8 8 10 7 7 7 6 17 30 51 55 59 59 59 61 61 61 61 61 61 61 61 61 62 62 63 64 64 64 64 65 65 65 65 65 65 65 65 65 66 66 65 63 62 63 63 65 65 66 64 63 63 63 63 64 65 65 65 64 65 66 66 66 66 66 66 65 64 64 66 66 66 66 66 66 65 64 63 62 62 63 64 63 62 62 62 62 62 62
8 10 9 7 6 5 6 6 7 8 7 8 9 11 10 13 34 50 55 58 58 59 60 59 59 59 61 61 61 61 61 61 63 63 64 64 64 65 65 65 65 65 65 65 65 65 65 65 65 64 63 62 63 64 66 66 65 65 64 64 63 63 63 64 64 63 64 64 65 66 66 66 66 65 66 64 64 66 66 66 66 65 65 65 65 64 63 62 62 63 63 62 61 60 60 61 61
7 10 9 7 8 7 7 6 7 8 15 12 13 10 10 14 25 44 53 57 57 59 60 60 59 60 61 61 60 61 62 62 63 63 64 64 64 64 65 64 65 64 65 65 65 65 65 65 65 64 63 62 64 66 66 66 65 65 62 62 62 62 62 63 63 63 63 65 65 65 66 66 66 65 66 64 65 64 64 65 65 64 64 65 65 65 64 64 64 63 62 60 60 61 59 60 61
10 8 9 9 7 7 7 8 6 9 10 8 8 8 8 14 18 34 53 56 57 59 60 59 59 60 60 60 60 61 61 62 62 62 63 64 64 64 64 64 64 65 65 65 65 65 64 64 63 62 62 62 63 66 66 65 64 63 62 62 63 62 62 64 64 64 65 65 64 65 65 65 65 65 65 65 64 63 63 62 64 63 63 65 65 65 65 64 63 62 62 62 60 59 60 60 61
12 11 9 8 8 7 7 13 13 8 9 14 12 9 14 20 22 39 52 55 57 58 59 59 59 60 60 60 60 60 61 61 61 62 62 63 64 64 64 64 64 65 65 65 64 64 63 62 61 61 62 62 63 65 65 64 63 64 64 63 63 62 63 65 63 62 63 63 64 64 64 64 65 65 64 64 65 64 63 63 64 63 63 64 65 65 65 64 65 64 64 64 63 62 61 60 61
20 11 10 8 7 5 6 11 13 17 13 20 13 15 14 21 26 41 49 52 55 57 56 55 58 60 61 61 60 61 61 61 61 62 63 63 63 63 64 64 64 64 64 63 63 63 63 61 62 62 62 62 62 64 63 64 64 64 64 63 62 61 60 60 60 61 61 63 64 64 65 64 64 65 65 65 65 64 63 63 63 63 63 63 65 65 64 64 64 64 64 64 63 63 62 61 61
13 17 10 8 9 7 7 15 11 17 14 19 7 6 11 18 27 42 48 51 53 56 55 55 55 57 59 60 61 62 62 62 61 62 63 63 64 64 64 64 64 63 62 62 62 62 63 63 63 63 63 64 64 63 64 64 63 63 62 61 59 58 59 60 60 60 62 62 62 62 64 64 64 64 64 64 64 64 63 63 63 63 63 63 64 64 65 64 63 62 63 64 64 64 63 62 60
12 9 11 9 9 9 8 8 9 9 8 13 18 7 13 28 33 44 49 51 53 55 57 57 59 59 60 60 61 61 60 61 62 63 63 63 63 63 63 63 62 62 62 63 63 63 64 64 64 63 63 63 64 63 62 62 62 61 60 59 59 59 59 59 59 60 61 62 62 63 63 63 64 64 64 63 63 63 64 63 63 63 63 63 64 64 64 64 64 64 63 63 64 64 63 61 61
7 12 10 9 9 8 10 8 9 11 20 19 16 10 8 23 39 44 50 52 53 55 57 57 58 60 60 61 61 61 61 61 62 62 62 63 63 63 63 62 62 62 63 63 63 63 63 63 63 62 62 62 62 62 62 62 61 59 59 60 60 60 60 60 61 61 62 63 62 62 62 63 63 63 64 63 63 63 64 63 63 63 63 64 64 64 64 64 64 64 64 64 64 64 64 62 62
8 10 9 9 8 8 7 7 10 13 11 7 17 26 16 23 32 49 51 51 53 54 56 56 58 60 60 61 61 61 62 62 61 61 61 62 62 62 62 62 61 62 62 62 62 62 62 61 61 61 60 60 60 61 61 62 62 61 61 60 60 60 61 61 61 61 62 62 62 62 62 62 63 63 63 63 63 64 63 63 62 62 62 63 64 64 64 64 64 64 64 64 64 64 64 64 63
10 9 11 12 8 9 6 8 6 13 10 8 11 21 11 24 40 50 53 51 51 53 56 57 58 59 60 59 59 60 61 61 61 61 61 61 61 60 60 60 60 60 61 61 61 61 61 60 60 59 59 60 60 60 61 61 61 61 61 60 60 60 61 61 61 61 61 61 61 62 63 64 65 65 65 64 63 63 63 63 63 62 62 62 63 63 63 63 64 64 64 64 64 64 64 64 63
11 8 8 10 9 11 18 14 12 14 8 10 12 19 22 23 39 48 48 49 52 54 56 56 57 58 59 60 60 60 60 60 60 60 60 60 60 59 59 59 59 59 59 59 60 60 60 59 59 59 59 60 60 61 61 61 61 61 61 60 60 59 60 60 60 60 61 61 61 62 62 63 64 64 65 65 65 64 63 63 62 62 62 63 63 62 62 63 63 64 64 64 64 64 64 64 64
7 8 8 8 12 12 13 13 16 7 9 10 14 11 31 17 34 46 50 50 53 55 54 55 54 55 57 58 59 60 60 59 59 59 59 59 59 58 58 57 57 57 58 57 58 58 58 58 57 57 58 59 59 59 60 60 61 61 60 60 59 59 59 59 59 59 59 60 61 61 62 62 62 63 63 63 63 63 63 62 62 62 62 62 62 62 63 63 63 64 64 63 63 63 64 63 63
8 10 8 9 11 8 5 10 8 9 8 16 16 18 28 24 35 43 49 51 55 55 55 56 55 57 58 58 59 59 59 59 58 58 58 58 58 57 57 56 56 56 56 56 57 57 57 57 57 57 57 57 58 58 58 58 58 59 59 59 59 59 59 58 58 58 58 59 60 60 61 60 61 61 61 61 61 62 62 62 62 62 62 62 62 62 62 62 62 63 63 63 63 63 63 62 62
8 7 10 6 6 4 3 7 10 13 15 19 17 20 23 30 44 49 49 49 54 55 55 57 56 57 57 58 58 58 58 58 58 57 57 57 57 56 57 56 56 57 56 56 56 57 57 57 57 56 57 57 57 57 57 57 58 58 59 58 58 58 58 58 58 58 58 59 60 60 60 60 60 60 59 59 60 61 61 62 62 62 62 62 62 62 62 62 62 63 63 63 62 63 63 62 62
9 9 7 9 11 9 0 10 6 8 10 16 28 17 12 31 39 49 50 53 53 56 57 58 58 57 57 57 57 57 57 57 56 56 56 56 56 56 56 56 56 56 56 56 56 56 56 55 56 56 56 56 57 57 56 56 57 57 58 58 58 58 58 58 57 58 58 57 57 58 58 58 58 58 58 59 60 60 60 61 61 62 62 62 62 62 62 62 63 63 63 63 63 63 63 62 62
7 9 10 10 7 19 6 16 13 13 9 10 28 25 39 40 48 50 52 52 50 51 52 55 55 56 56 56 55 56 56 56 56 55 56 56 56 55 55 55 55 55 55 55 55 55 56 55 55 55 55 56 57 57 57 56 56 57 57 56 56 57 57 56 56 56 55 55 56 56 56 56 56 57 57 58 58 59 59 60 61 61 61 61 61 61 62 62 63 63 63 63 62 63 62 62 62
13 8 8 8 16 12 13 10 21 18 19 23 33 40 43 47 50 49 50 49 49 50 51 52 53 54 55 54 55 55 55 55 55 55 54 55 55 55 54 54 54 54 54 54 54 54 55 55 54 54 55 55 55 56 55 55 55 55 55 55 54 54 55 55 55 55 55 55 55 55 55 55 55 55 56 56 57 57 58 58 59 60 60 61 61 61 61 62 63 63 63 62 62 62 62 62 62
7 7 8 16 19 18 14 11 14 12 11 16 35 36 39 41 36 49 48 47 48 49 49 51 51 53 53 53 54 54 54 54 54 54 54 54 54 54 54 54 53 53 53 53 54 55 54 54 54 53 53 53 53 53 54 54 53 53 53 54 54 54 54 54 54 54 55 54 54 54 54 53 53 54 55 54 55 55 56 57 57 58 60 60 61 61 61 62 62 62 62 62 62 62 62 62 62
5 7 12 6 9 7 16 18 7 7 3 20 34 39 39 41 40 45 46 46 47 48 49 50 50 51 52 52 53 53 53 53 53 53 53 53 53 54 54 54 54 54 54 54 54 54 54 54 53 53 52 52 52 53 53 53 53 53 54 54 53 54 54 54 54 54 53 53 52 52 52 52 52 53 53 52 53 53 54 55 56 57 59 60 60 60 61 62 62 62 62 62 62 62 62 61 62
12 10 7 13 15 15 12 15 15 14 13 26 32 37 33 41 41 45 46 46 47 48 48 49 49 51 51 51 51 52 52 52 53 52 52 52 52 53 53 53 52 52 52 52 52 52 52 52 52 52 52 52 52 53 53 53 53 53 53 53 53 53 53 53 53 52 52 51 51 51 51 51 51 52 51 52 52 53 54 54 55 56 58 60 60 60 60 60 61 62 62 62 62 62 62 61 61
9 8 9 11 16 20 16 21 12 15 21 26 31 31 33 37 44 45 46 46 48 48 48 49 50 51 51 51 51 51 52 52 52 52 52 52 52 52 52 52 52 53 52 51 51 51 51 51 51 51 51 52 52 53 53 52 52 52 52 51 52 52 52 52 51 51 51 50 50 51 51 51 51 50 51 51 52 52 52 53 53 56 58 60 60 60 60 60 61 61 61 62 62 62 62 62 62
10 10 12 9 12 12 7 13 17 25 29 31 30 28 29 34 46 46 46 47 49 49 49 50 50 50 50 50 50 50 51 52 52 52 52 51 51 51 51 52 53 52 51 51 52 52 51 51 51 51 51 52 52 52 51 51 51 51 51 51 51 51 51 50 50 50 50 50 50 50 50 50 49 49 50 50 51 50 50 51 52 53 55 56 58 59 60 60 61 61 61 61 61 61 61 61 61